Location: �mondeville
(49.4591°N, 1.3431°W)
Time: 17:40:11
(UTC+00:00)

Cosmos 1850 Rocket - Pass Details

Date: 22 October 2019
Orbit: 754 x 786 km, 74.0° (Epoch: 17 November)

Event Time Altitude Azimuth Distance (km) Brightness Sun altitude
Rises 05:29:52 0° 206° (SSW) 3,199 7.0 -11.5°
Reaches altitude 10° 05:32:14 10° 207° (SSW) 2,276 6.2 -11.2°
Maximum altitude 05:37:23 78° 294° (WNW) 777 3.9 -10.3°
Drops below altitude 10° 05:42:36 10° 21° (NNE) 2,294 6.7 -9.5°
Sets 05:44:59 0° 23° (NNE) 3,225 7.5 -9.1°
